SCP
0 0 0 0 0 0 0 0 0 1 2 2 2 2 3 3 4 6 9 12 12 11 12 17 21 23 23 19 15 13 11 10 8 7 7 6 6 5 5 6 8 10 12 15
0 0 0 0 0 0 0 0 0 1 1 2 2 2 3 4 6 8 9 10 11 12 14 15 16 17 18 16 13 11 10 9 8 7 7 6 6 6 6 8 8 10 13 16
0 0 0 0 0 0 0 0 0 1 1 1 2 2 3 5 7 9 10 9 9 11 13 12 10 10 12 11 9 9 9 9 8 7 6 6 6 6 7 9 8 9 12 15
0 0 0 0 0 0 0 0 0 0 0 1 1 1 2 5 8 9 8 7 7 9 9 9 8 7 7 7 6 7 8 8 8 7 5 5 6 7 8 8 8 8 9 10
0 0 0 0 0 0 0 0 0 0 0 0 0 1 2 5 7 8 7 6 6 7 7 6 6 5 5 5 5 5 7 7 7 7 6 5 6 7 7 6 6 6 6 5
0 0 0 0 0 0 0 0 0 0 0 0 0 1 2 5 6 7 6 5 5 5 5 5 4 4 4 4 4 5 5 6 7 7 7 7 7 7 7 6 4 4 3 3
0 0 0 0 0 0 0 0 0 0 0 0 1 2 3 4 5 5 5 5 4 4 4 4 3 3 3 3 4 5 5 5 5 5 6 6 5 5 5 5 4 3 3 3
0 0 0 0 0 0 0 0 0 0 0 0 1 2 4 4 4 5 4 4 4 4 4 4 3 3 3 3 3 4 4 4 3 2 3 3 3 2 2 3 3 3 2 2
0 0 0 0 0 0 0 0 0 0 0 0 1 3 4 4 4 4 4 4 4 4 4 4 3 2 2 2 2 2 2 2 1 0 0 1 1 1 1 1 1 1 1 1
0 0 0 0 0 0 0 0 0 0 0 0 1 2 2 3 4 4 4 3 3 3 2 2 1 1 1 1 1 1 1 0 0 0 0 0 0 0 0 0 0 0 0 0
0 0 0 0 0 0 0 0 0 0 0 0 1 1 2 3 4 4 2 2 2 1 1 1 0 0 0 0 0 0 0 0 0 0 0 0 0 0 0 0 0 0 0 0
0 0 0 0 0 0 0 0 0 0 0 0 0 1 2 3 3 2 1 1 1 1 0 0 0 0 0 0 0 0 0 0 0 0 0 0 0 0 0 0 0 0 0 0
0 0 0 0 0 0 0 0 1 1 1 0 0 1 2 2 2 2 1 1 1 1 0 0 0 0 0 0 0 0 0 0 0 0 0 0 0 0 0 0 0 0 0 0
0 0 0 0 0 0 0 0 1 1 1 1 1 1 1 2 2 1 1 1 1 0 0 0 0 0 0 0 0 0 0 0 0 0 0 0 0 0 0 0 0 0 0 0
0 0 0 0 0 0 0 0 1 1 1 1 1 1 1 2 2 1 1 1 1 0 0 0 0 0 0 0 0 0 0 0 0 0 0 0 0 0 0 0 0 0 0 0
0 0 0 0 0 0 0 0 1 1 1 1 1 1 1 1 1 1 1 1 1 1 0 0 0 0 0 0 0 0 0 0 0 0 0 0 0 0 0 0 0 0 0 0
0 0 0 0 0 0 0 0 1 1 1 1 1 1 1 1 1 1 1 1 0 0 0 0 0 0 0 0 0 0 0 0 0 0 0 0 0 0 0 0 0 0 0 0
0 0 0 0 0 0 0 0 0 1 1 1 1 1 1 1 1 1 1 0 0 0 0 0 0 0 0 0 0 0 0 0 0 0 0 0 0 0 0 0 0 0 0 0
0 0 0 0 0 0 0 0 0 0 1 1 1 1 1 1 1 1 0 0 0 0 0 0 0 0 0 0 0 0 0 0 0 0 0 0 0 0 0 0 0 0 0 0
0 0 0 0 0 0 0 0 0 0 1 1 1 1 1 1 1 1 0 0 0 0 0 0 0 0 0 0 0 0 0 0 0 0 0 0 0 0 0 0 0 0 0 0
0 0 0 0 0 0 0 0 0 0 0 1 1 1 1 1 1 0 0 0 0 0 0 0 0 0 0 0 0 0 0 0 0 0 0 0 0 0 0 0 0 0 0 0
0 0 0 0 0 0 0 0 0 0 0 0 0 1 1 1 0 0 0 0 0 0 0 0 0 0 0 0 0 0 0 0 0 0 0 0 0 0 0 0 0 0 0 0
0 0 0 0 0 0 0 0 0 0 0 0 0 0 0 0 0 0 0 0 0 0 0 0 0 0 0 0 0 0 0 0 0 0 0 0 0 0 0 0 0 0 0 0
0 0 0 0 0 0 0 0 0 0 0 0 0 0 0 0 0 0 0 0 0 0 0 0 0 0 0 0 0 0 0 0 0 0 0 0 0 0 0 0 0 0 0 0
0 0 0 0 0 0 0 0 0 0 0 0 0 0 0 0 0 0 0 0 0 0 0 0 0 0 0 0 0 0 0 0 0 0 0 0 0 0 0 0 0 0 0 0
0 0 0 0 0 0 0 0 0 0 0 0 0 0 0 0 0 0 0 0 0 0 0 0 0 0 0 0 0 0 0 0 0 0 0 0 0 0 0 0 0 0 0 0
Wind_Speed
11 11 11 10 12 14 14 13 11 7 6 9 8 6 3 3 5 5 5 8 8 8 8 9 11 10 8 9 7 5 4 3 2 2 3 4 3 2 2 3 4 4 3 3
10 12 11 9 9 10 12 12 7 3 4 4 5 4 3 3 5 7 8 10 8 9 10 11 12 10 10 8 6 5 4 3 2 1 1 2 3 3 3 3 5 4 4 3
10 7 4 7 8 9 11 11 8 5 4 6 7 7 7 4 8 10 10 11 9 11 13 12 12 11 11 10 8 5 5 4 3 3 2 2 2 2 3 4 4 6 7 6
9 7 6 7 8 9 10 9 8 7 8 8 12 10 12 10 9 9 11 10 10 12 12 12 12 11 11 9 9 8 7 6 5 3 3 3 3 3 3 5 6 8 9 8
8 7 7 8 8 8 9 9 9 9 11 11 13 12 10 12 11 10 10 10 11 13 13 13 11 11 11 10 9 9 9 9 8 6 5 5 5 6 6 7 9 9 8 9
11 8 6 6 7 8 9 9 10 11 12 14 15 13 8 9 12 13 11 11 12 13 13 11 10 11 11 11 11 11 11 12 10 10 10 9 9 9 9 9 8 8 7 8
10 9 6 7 8 8 9 8 7 9 10 12 11 10 3 9 14 15 13 12 11 12 11 10 11 12 12 13 13 12 12 12 12 13 13 12 12 11 11 9 8 8 7 7
8 6 5 6 9 7 9 12 10 7 6 7 7 2 8 12 16 15 14 13 11 12 12 12 12 12 12 13 12 12 13 13 13 14 14 13 12 10 9 11 10 9 8 8
5 7 6 7 8 9 8 9 10 10 10 9 3 6 7 11 14 14 13 13 12 12 12 13 12 12 12 13 13 13 13 13 13 14 14 13 13 13 12 12 11 9 8 8
5 7 8 7 7 8 7 7 6 6 6 7 4 4 4 8 10 11 11 12 12 12 12 12 11 12 12 12 12 13 13 13 13 13 12 12 13 13 12 11 12 10 9 8
5 5 7 5 4 5 5 6 6 6 6 6 4 1 2 8 12 12 11 11 12 12 11 11 11 11 11 11 12 12 12 13 13 13 13 13 12 11 11 10 10 9 8 7
6 5 6 5 6 8 7 5 5 5 6 8 5 3 7 9 11 12 12 12 12 12 11 11 11 10 10 11 11 11 11 12 12 12 11 11 10 10 10 10 9 8 7 6
7 4 5 5 4 5 5 6 6 7 6 5 5 4 8 11 12 11 12 12 12 12 11 11 10 10 10 10 10 10 10 10 10 11 11 10 9 9 9 8 7 6 6 6
2 4 2 4 4 5 5 8 9 7 5 5 5 6 7 9 10 9 11 12 11 11 11 10 10 9 9 9 9 9 9 9 9 9 9 8 8 7 7 6 6 6 6 6
2 4 3 4 4 3 4 7 8 8 8 5 6 7 7 8 9 9 11 12 11 11 11 10 9 9 9 8 8 8 8 8 8 8 8 8 7 6 6 6 5 5 5 6
2 4 4 4 3 1 2 5 7 8 9 7 7 8 9 11 10 9 10 11 11 11 11 10 10 9 8 7 7 7 7 6 6 7 8 7 6 6 5 5 5 5 6 5
3 4 5 5 3 2 3 7 7 8 9 8 7 7 9 10 9 9 9 9 9 10 11 10 9 8 7 6 5 6 6 6 6 6 6 6 5 5 4 5 5 5 5 4
4 5 5 5 3 1 5 7 7 7 9 9 9 10 10 11 10 9 8 9 10 10 10 10 8 7 6 5 5 5 5 5 6 5 6 6 5 5 4 5 5 4 4 4
1 4 5 4 2 6 5 6 6 5 8 8 8 11 12 13 12 9 8 9 10 10 9 9 8 7 5 4 4 4 5 5 5 5 5 5 4 4 4 4 4 4 3 3
2 3 5 4 3 3 5 6 4 3 5 6 6 8 9 8 5 5 8 10 11 10 9 8 7 7 5 3 3 4 5 5 5 5 5 5 4 4 4 4 3 3 2 3
2 3 3 4 2 6 6 5 4 2 4 4 6 7 6 5 7 11 11 11 10 10 9 8 7 6 4 4 4 4 5 5 5 5 4 4 3 3 4 3 3 3 3 3
4 4 3 4 3 5 8 6 7 6 6 8 10 11 13 14 14 13 12 11 10 9 8 7 6 6 4 4 4 5 5 4 4 3 3 3 2 2 4 3 2 2 2 1
4 6 5 6 6 7 9 9 8 8 9 9 11 13 14 14 14 13 12 10 9 9 7 6 6 6 4 4 4 5 4 3 2 3 2 2 3 3 2 2 1 1 2 2
5 4 4 6 8 9 9 10 9 10 10 11 12 13 13 14 14 13 11 10 9 8 7 6 7 6 5 4 5 3 2 2 2 2 1 1 2 2 3 3 4 4 5 5
5 3 4 7 9 9 9 9 10 11 12 12 12 13 13 14 13 12 11 10 9 8 7 6 5 6 6 5 4 3 2 2 2 1 0 0 1 2 3 4 4 5 5 4
3 3 1 4 8 7 11 11 11 11 11 12 13 13 12 12 12 12 10 9 9 8 7 6 6 5 5 5 4 3 2 1 1 1 1 0 1 1 2 4 4 7 5 4
Wind_Direction
225 235 245 245 239 258 283 282 264 232 168 183 195 210 201 162 171 143 111 100 90 78 72 63 62 60 65 71 78 78 92 99 110 146 168 173 169 152 115 94 91 87 81 85
242 241 254 269 268 266 274 274 264 227 167 194 201 219 218 181 129 91 80 75 73 75 66 63 59 62 59 57 65 70 70 89 96 104 138 155 148 135 121 101 87 81 76 65
255 272 266 263 263 261 260 263 256 241 209 210 213 217 207 175 117 106 93 82 71 70 63 57 54 53 54 47 40 46 46 54 64 81 95 98 100 107 100 94 79 61 61 59
266 263 265 258 256 257 258 265 270 259 242 222 217 219 200 174 135 113 99 88 82 71 67 58 54 50 50 47 49 45 41 44 50 77 106 117 119 111 87 85 82 68 60 61
272 262 256 256 259 261 270 272 261 255 257 257 232 232 201 173 155 128 109 98 84 76 70 60 54 50 50 48 49 51 47 43 44 52 69 84 90 89 84 79 77 71 61 57
287 284 274 271 267 262 268 266 257 250 249 247 241 240 210 182 155 130 107 90 85 83 75 67 61 56 50 47 47 50 48 43 42 51 57 66 77 86 87 80 78 74 66 58
275 255 246 266 263 244 251 255 247 236 234 246 250 239 118 115 121 125 117 98 88 85 84 73 60 55 51 48 47 50 53 49 47 53 56 63 70 74 77 77 77 76 69 61
302 279 243 241 251 253 237 246 256 272 274 273 245 197 92 101 106 112 113 105 93 84 78 71 64 60 58 55 53 54 58 57 56 59 61 61 64 69 70 69 73 71 69 64
320 296 284 261 253 255 254 253 272 277 282 282 280 108 113 110 109 113 113 105 95 86 79 75 69 63 62 60 58 59 62 62 62 65 68 66 66 70 73 72 72 72 69 70
249 278 275 261 243 233 251 265 276 272 279 280 257 159 163 148 124 118 114 108 101 93 83 77 71 68 67 67 65 64 65 68 67 67 69 73 70 71 74 75 74 74 72 70
309 294 292 289 275 286 258 250 272 290 291 291 281 106 70 154 144 132 123 115 109 100 92 84 78 74 73 72 72 71 70 70 69 69 72 73 74 74 75 76 76 77 76 74
349 321 304 304 325 306 289 295 286 296 306 306 311 64 68 118 124 121 119 116 108 101 96 92 87 82 77 74 72 73 73 75 76 76 76 77 78 78 80 79 77 77 78 75
353 333 322 328 329 322 322 334 320 307 305 307 312 81 91 102 107 116 121 119 113 108 102 96 88 82 79 78 77 76 77 78 81 83 83 82 82 82 83 84 84 81 76 72
292 299 316 303 305 312 332 345 339 330 332 345 30 93 104 106 110 118 124 123 118 113 107 100 93 87 84 83 82 83 82 84 87 88 88 85 84 85 85 85 81 78 75 70
283 277 274 266 275 296 351 354 353 1 4 14 64 84 93 97 105 111 121 122 119 116 111 105 101 97 93 90 86 86 87 86 89 89 86 84 84 83 83 80 76 72 71 72
326 306 309 289 278 274 29 21 8 22 20 31 77 79 89 98 99 103 116 121 121 119 114 108 103 100 97 95 97 96 93 92 90 91 90 90 89 86 82 79 72 67 64 62
308 306 298 284 260 209 44 29 25 34 31 24 51 87 102 99 100 110 118 118 120 120 117 113 108 101 97 93 94 95 95 94 91 92 94 92 87 82 77 75 71 65 64 63
324 319 298 289 290 19 79 48 44 58 54 57 82 103 109 106 96 91 103 116 116 117 115 110 107 102 95 91 91 95 97 98 95 91 90 87 82 76 70 65 63 57 55 54
338 317 302 314 11 103 88 47 27 45 65 59 90 109 113 115 102 82 87 106 113 112 111 110 109 109 107 106 108 110 104 98 95 90 82 77 72 68 63 60 58 53 48 48
204 243 281 316 343 59 70 36 24 77 82 55 87 113 129 139 119 112 112 109 109 110 112 115 117 114 116 116 108 100 97 94 89 84 77 70 59 56 58 54 47 49 46 41
252 255 289 322 22 79 35 6 350 28 79 70 86 103 111 94 94 117 119 114 115 118 120 124 125 121 124 121 107 100 99 92 85 81 78 73 63 65 66 55 43 33 38 43
332 337 358 343 30 65 16 31 53 81 91 88 92 98 101 103 108 115 117 119 123 125 125 127 125 122 119 113 108 103 93 87 85 82 73 65 47 45 69 63 51 32 8 25
37 30 30 44 74 82 64 77 89 97 97 99 105 111 116 119 121 122 122 125 127 126 125 128 126 119 116 115 108 104 103 106 98 80 65 57 59 54 46 40 43 32 18 21
114 87 104 109 114 106 97 97 94 93 99 106 113 119 124 124 126 126 129 131 130 128 132 138 134 128 125 122 113 111 114 98 79 68 56 50 89 87 58 36 22 32 25 20
94 119 110 115 125 119 111 107 105 103 106 111 116 121 123 126 130 132 132 132 135 137 138 141 137 132 127 122 123 131 118 91 70 34 281 89 84 83 85 73 44 40 60 45
81 87 105 124 144 139 129 122 121 119 117 119 120 118 122 128 130 131 130 133 138 139 139 138 135 131 132 135 133 125 114 101 66 353 321 35 105 113 127 133 115 60 81 101